Location: Anumalkud?ru
(16.4847°N, 80.6636°E)
Time: 14:34:39
(UTC+00:00)

Lacrosse 5 rocket - Pass Details

Date: 11 April 2026
Orbit: 390 x 473 km, 57.0° (Epoch: 11 May)

Event Time Altitude Azimuth Distance (km) Brightness Sun altitude
Rises 13:35:45 0° 235° (SW) 2,348 5.2 -11.1°
Reaches altitude 10° 13:38:09 10° 251° (WSW) 1,469 4.5 -11.7°
Maximum altitude 13:40:46 22° 304° (NW) 940 3.4 -12.3°
Drops below altitude 10° 13:43:20 10° 358° (N) 1,440 3.7 -12.9°
Sets 13:45:40 0° 14° (NNE) 2,286 4.5 -13.5°
